Location: Newark
(34.9500°N, 139.9667°E)
Time: 02:21:45
(UTC+00:00)

deb Explorer IX - Pass Details

Date: 14 December 2019
Orbit: 548 x 1101 km, 38.8° (Epoch: 23 January)

Event Time Altitude Azimuth Distance (km) Brightness Sun altitude
Rises 11:44:48 0° 284° (WNW) 3,687 ? -51.4°
Reaches altitude 10° 11:47:40 10° 275° (W) 2,805 ? -52.0°
Enters shadow 11:47:47 11° 274° (W) 2,770 ? -52.0°
